This is the latest recevied weather packets stored in our database for station/object NR0Q. If no packets are shown the sender has not sent any weather packets the latest 10 day(s).
| Time | Temp. | Humidity | Pressure | Rain* | Wind** | Luminosity | Snow |
|---|---|---|---|---|---|---|---|
| 1777918501 | 26.67° C | 44% | 1005.4 hPa | 0 mm | - | - | - |
| 1777917601 | 27.22° C | 44% | 1006.4 hPa | 0 mm | - | - | - |
| 1777916701 | 27.22° C | 43% | 1006.4 hPa | 0 mm | - | - | - |
| 1777915801 | 26.67° C | 44% | 1006.4 hPa | 0 mm | - | - | - |
| 1777914901 | 26.11° C | 43% | 1006.4 hPa | 0 mm | - | - | - |
| 1777914001 | 26.11° C | 42% | 1006.4 hPa | 0 mm | - | - | - |
| 1777913101 | 25.56° C | 44% | 1007.5 hPa | 0 mm | - | - | - |
| 1777912201 | 25° C | 44% | 1007.5 hPa | 0 mm | - | - | - |
| 1777911301 | 24.44° C | 44% | 1007.5 hPa | 0 mm | - | - | - |
| 1777910401 | 23.89° C | 45% | 1007.5 hPa | 0 mm | - | - | - |
| 1777909502 | 23.89° C | 45% | 1007.5 hPa | 0 mm | - | - | - |
| 1777908602 | 23.33° C | 46% | 1007.5 hPa | 0 mm | - | - | - |
| 1777907701 | 22.78° C | 47% | 1007.5 hPa | 0 mm | - | - | - |
| 1777906802 | 21.67° C | 50% | 1008.5 hPa | 0 mm | - | - | - |
| 1777905901 | 21.67° C | 51% | 1008.5 hPa | 0 mm | - | - | - |
| 1777905002 | 16.11° C | 52% | 1008.5 hPa | 0 mm | - | - | - |
| 1777904101 | 16.11° C | 53% | 1008.5 hPa | 0 mm | - | - | - |
| 1777903201 | 16.11° C | 53% | 1008.5 hPa | 0 mm | - | - | - |
| 1777902302 | 16.11° C | 54% | 1008.5 hPa | 0 mm | - | - | - |
| 1777901402 | 16.11° C | 56% | 1008.5 hPa | 0 mm | - | - | - |
| 1777900501 | 16.11° C | 56% | 1008.5 hPa | 0 mm | - | - | - |
| 1777899601 | 16.11° C | 57% | 1008.5 hPa | 0 mm | - | - | - |
| 1777898702 | 16.11° C | 57% | 1009.5 hPa | 0 mm | - | - | - |
| 1777897801 | 16.11° C | 61% | 1008.5 hPa | 0 mm | - | - | - |
| 1777896901 | 16.11° C | 61% | 1008.5 hPa | 0 mm | - | - | - |
* Rain latest hour (hover to see other rain measurements)
** Current wind speed in m/s (hover to see current wind gust speed)